Date String (YYYY-MM-DD hh:mm:ss) UTC,Instrument flags,absolute air pressure of the measurement (hPa),sample flow rate (lpm),inlet stack bypass flow (lpm),air temperature of the measurement (°C),ambient temperature measured by the external sensor (°C),aerosol sample conditioner tube jacket temperature (°C),OPC LED temperature (°C),internal box temperature (°C),relative humidity of the measurement (%),span deviation,mass concentration of particles derived from Lorenz-Mie calculation of OPC scattering (μg/m³),mass concentration of particles derived from Lorenz-Mie calculation of OPC scattering (μg/m³),mass concentration of particles derived from Lorenz-Mie calculation of OPC scattering (μg/m³)
DateTimeUTC,F1_M11,P_M11,Q1_M11,Q2_M11,T1_M11,T2_M11,T3_M11,T4_M11,T5_M11,U1_M11,ZSPAN_M11,X2_M11,X0_M11,X1_M11
2023-11-19 16:00:00,SystemResetWarning,0822.0,5.00,000.00,024.4,023.5,000.0,032.7,025.7,17.1,0000.0,0001.56,0003.41,0001.33
2023-11-19 16:01:00,SystemResetWarning,0822.0,5.00,000.00,024.4,023.6,000.0,032.7,025.7,17.1,0000.0,0001.57,0003.47,0001.32
2023-11-19 16:02:00,SystemResetWarning,0822.1,5.00,000.00,024.4,023.6,000.0,032.7,025.7,17.1,0000.0,0001.55,0004.89,0001.29
2023-11-19 16:03:00,SystemResetWarning,0822.0,5.00,000.00,024.4,023.5,000.0,032.8,025.7,16.9,0000.0,0001.51,0005.10,0001.26
2023-11-19 16:04:00,SystemResetWarning,0822.0,5.00,000.00,024.4,023.5,000.0,032.8,025.6,16.6,0000.0,0001.53,0005.19,0001.24
2023-11-19 16:05:00,SystemResetWarning,0822.0,5.00,000.00,024.3,023.5,000.0,032.7,025.6,16.1,0000.0,0001.54,0005.25,0001.24
2023-11-19 16:06:00,SystemResetWarning,0822.0,5.00,000.00,024.3,023.4,000.0,032.7,025.6,16.1,0000.0,0001.54,0004.27,0001.23
2023-11-19 16:07:00,SystemResetWarning,0822.0,5.00,000.00,024.3,023.4,000.0,032.7,025.6,15.9,0000.0,0001.55,0004.29,0001.24
2023-11-19 16:08:00,SystemResetWarning,0822.0,5.00,000.00,024.2,023.4,000.0,032.7,025.5,16.5,0000.0,0001.58,0004.35,0001.25
2023-11-19 16:09:00,SystemResetWarning,0822.0,5.00,000.00,024.2,023.4,000.0,032.7,025.5,16.7,0000.0,0001.58,0004.06,0001.25
2023-11-19 16:10:00,SystemResetWarning,0822.0,5.01,000.00,024.2,023.3,000.0,032.7,025.5,16.2,0000.0,0001.56,0004.01,0001.26
2023-11-19 16:11:00,SystemResetWarning,0822.0,5.00,000.00,024.2,023.3,000.0,032.7,025.5,16.4,0000.0,0001.54,0003.99,0001.25
2023-11-19 16:12:00,SystemResetWarning,0822.0,4.99,000.00,024.2,023.3,000.0,032.7,025.5,16.8,0000.0,0001.55,0003.97,0001.24
2023-11-19 16:13:00,SystemResetWarning,0822.0,5.00,000.00,024.2,023.3,000.0,032.6,025.5,16.8,0000.0,0001.50,0002.74,0001.22
2023-11-19 16:14:00,SystemResetWarning,0822.0,5.00,000.00,024.2,023.3,000.0,032.6,025.5,16.7,0000.0,0001.53,0002.23,0001.22
2023-11-19 16:15:00,SystemResetWarning,0822.0,5.00,000.00,024.2,023.4,000.0,032.6,025.5,16.9,0000.0,0001.52,0002.31,0001.23
2023-11-19 16:16:00,SystemResetWarning,0822.0,5.00,000.00,024.2,023.4,000.0,032.6,025.6,16.9,0000.0,0001.51,0002.27,0001.23
2023-11-19 16:17:00,SystemResetWarning,0822.0,5.00,000.00,024.2,023.4,000.0,032.6,025.6,16.8,0000.0,0001.49,0002.23,0001.22
2023-11-19 16:18:00,SystemResetWarning,0822.0,4.99,000.00,024.2,023.4,000.0,032.6,025.6,16.8,0000.0,0001.50,0002.27,0001.21
2023-11-19 16:19:00,SystemResetWarning,0822.0,5.00,000.00,024.3,023.4,000.0,032.6,025.6,16.9,0000.0,0001.51,0002.36,0001.20
2023-11-19 16:20:00,SystemResetWarning,0822.0,5.00,000.00,024.3,023.5,000.0,032.6,025.6,16.7,0000.0,0001.47,0002.30,0001.19
2023-11-19 16:21:00,SystemResetWarning,0822.0,5.00,000.00,024.3,023.5,000.0,032.6,025.6,16.9,0000.0,0001.50,0002.37,0001.20
2023-11-19 16:22:00,SystemResetWarning,0822.0,5.00,000.00,024.3,023.5,000.0,032.6,025.7,17.2,0000.0,0001.53,0002.40,0001.21
2023-11-19 16:23:00,SystemResetWarning,0822.0,5.00,000.00,024.3,023.5,000.0,032.6,025.7,16.3,0000.0,0001.51,0002.76,0001.21
2023-11-19 16:24:00,SystemResetWarning,0822.0,5.00,000.00,024.3,023.5,000.0,032.6,025.7,16.0,0000.0,0001.54,0003.58,0001.23
2023-11-19 16:25:00,SystemResetWarning,0822.0,5.00,000.00,024.4,023.5,000.0,032.6,025.7,16.2,0000.0,0001.54,0003.59,0001.24
2023-11-19 16:26:00,SystemResetWarning,0822.0,5.00,000.00,024.4,023.6,000.0,032.7,025.7,16.0,0000.0,0001.54,0003.98,0001.24
2023-11-19 16:27:00,SystemResetWarning,0822.0,5.00,000.00,024.4,023.6,000.0,032.7,025.7,15.8,0000.0,0001.56,0004.27,0001.26
2023-11-19 16:28:00,SystemResetWarning,0822.0,4.99,000.00,024.4,023.6,000.0,032.7,025.8,15.7,0000.0,0001.58,0004.27,0001.26
2023-11-19 16:29:00,SystemResetWarning,0822.0,4.99,000.00,024.4,023.6,000.0,032.7,025.9,15.5,0000.0,0001.55,0004.21,0001.24
2023-11-19 16:30:00,SystemResetWarning,0822.1,4.99,000.00,024.4,023.6,000.0,032.7,025.8,15.3,0000.0,0001.50,0005.29,0001.23
2023-11-19 16:31:00,SystemResetWarning,0822.0,5.00,000.00,024.5,023.7,000.0,032.7,025.9,15.3,0000.0,0001.50,0006.00,0001.21
2023-11-19 16:32:00,SystemResetWarning,0822.0,5.00,000.00,024.5,023.7,000.0,032.7,025.9,15.2,0000.0,0001.45,0006.09,0001.17
2023-11-19 16:33:00,SystemResetWarning,0822.0,5.00,000.00,024.5,023.7,000.0,032.7,025.9,15.1,0000.0,0001.40,0006.03,0001.14
2023-11-19 16:34:00,SystemResetWarning,0821.9,5.00,000.00,024.5,023.7,000.0,032.7,025.9,15.1,0000.0,0001.38,0005.62,0001.11
2023-11-19 16:35:00,SystemResetWarning,0821.9,5.00,000.00,024.5,023.7,000.0,032.7,026.0,14.8,0000.0,0001.36,0004.83,0001.07
2023-11-19 16:36:00,SystemResetWarning,0821.9,5.00,000.00,024.5,023.8,000.0,032.8,026.0,14.5,0000.0,0001.33,0004.80,0001.04
2023-11-19 16:37:00,SystemResetWarning,0822.0,5.00,000.00,024.6,023.8,000.0,032.8,026.0,14.3,0000.0,0001.31,0004.41,0001.00
2023-11-19 16:38:00,SystemResetWarning,0821.9,5.00,000.00,024.6,023.8,000.0,032.8,026.0,14.6,0000.0,0001.26,0004.21,0000.96
2023-11-19 16:39:00,SystemResetWarning,0822.0,5.00,000.00,024.6,023.8,000.0,032.8,026.0,14.6,0000.0,0001.22,0004.21,0000.93
2023-11-19 16:40:00,SystemResetWarning,0822.0,5.00,000.00,024.6,023.8,000.0,032.8,026.0,14.5,0000.0,0001.20,0004.16,0000.92
2023-11-19 16:41:00,SystemResetWarning,0822.0,5.00,000.00,024.6,023.8,000.0,032.8,026.0,14.4,0000.0,0001.18,0003.24,0000.91
2023-11-19 16:42:00,SystemResetWarning,0822.1,5.00,000.00,024.6,023.8,000.0,032.8,026.0,14.2,0000.0,0001.16,0002.25,0000.90
2023-11-19 16:43:00,SystemResetWarning,0822.1,5.00,000.00,024.6,023.8,000.0,032.8,026.1,14.3,0000.0,0001.15,0002.05,0000.88
2023-11-19 16:44:00,SystemResetWarning,0822.1,5.00,000.00,024.7,023.8,000.0,032.8,026.1,14.3,0000.0,0001.13,0002.03,0000.87
2023-11-19 16:45:00,SystemResetWarning,0822.1,5.00,000.00,024.7,023.9,000.0,032.9,026.1,14.4,0000.0,0001.12,0002.03,0000.86
2023-11-19 16:46:00,SystemResetWarning,0822.0,5.02,000.00,024.7,023.9,000.0,032.9,026.1,14.4,0000.0,0001.06,0001.94,0000.85
2023-11-19 16:47:00,SystemResetWarning,0822.0,5.01,000.00,024.7,023.9,000.0,032.9,026.0,14.5,0000.0,0001.04,0001.86,0000.84
2023-11-19 16:48:00,SystemResetWarning,0822.0,5.00,000.00,024.7,023.9,000.0,032.9,026.1,14.5,0000.0,0001.01,0001.70,0000.83
2023-11-19 16:49:00,SystemResetWarning,0822.0,5.00,000.00,024.7,023.9,000.0,032.9,026.1,14.6,0000.0,0000.99,0001.70,0000.82
2023-11-19 16:50:00,SystemResetWarning,0822.1,5.00,000.00,024.7,023.9,000.0,032.9,026.1,14.5,0000.0,0000.98,0002.00,0000.82
2023-11-19 16:51:00,SystemResetWarning,0822.1,5.00,000.00,024.7,023.9,000.0,032.9,026.1,14.5,0000.0,0000.99,0002.27,0000.82
2023-11-19 16:52:00,SystemResetWarning,0822.2,5.00,000.00,024.7,023.9,000.0,032.9,026.1,14.5,0000.0,0001.00,0002.28,0000.82
2023-11-19 16:53:00,SystemResetWarning,0822.2,5.00,000.00,024.7,023.9,000.0,032.9,026.1,14.4,0000.0,0000.99,0002.26,0000.81
2023-11-19 16:54:00,SystemResetWarning,0822.2,5.00,000.00,024.7,023.9,000.0,033.0,026.1,14.4,0000.0,0000.98,0002.20,0000.82
2023-11-19 16:55:00,SystemResetWarning,0822.2,5.00,000.00,024.8,023.9,000.0,033.0,026.2,14.3,0000.0,0000.97,0002.19,0000.82
2023-11-19 16:56:00,SystemResetWarning,0822.1,5.00,000.00,024.8,024.0,000.0,033.0,026.2,14.3,0000.0,0000.99,0002.24,0000.82
2023-11-19 16:57:00,SystemResetWarning,0822.1,5.00,000.00,024.8,024.0,000.0,033.0,026.2,14.3,0000.0,0000.99,0002.28,0000.82
2023-11-19 16:58:00,SystemResetWarning,0822.0,5.00,000.00,024.8,024.0,000.0,033.0,026.2,14.1,0000.0,0001.00,0002.36,0000.83
2023-11-19 16:59:00,SystemResetWarning,0822.0,5.00,000.00,024.8,024.0,000.0,033.0,026.2,14.1,0000.0,0001.02,0002.53,0000.83
